Regional Weather Roundup
Issued by NWS Jackson, KY

Home | Current Version | Previous Version | Text Only | Print | Product List | Glossary On
Versions: 1 2 3 4 5 6 7 8 9 10 11 12 13 14 15 16 17 18 19 20 21 22 23 24 25 26 27 28 29 30 31 32 33 34 35 36 37 38 39 40 41 42 43 44 45 46 47 48 49 50
000
ASUS43 KJKL 252111
RWRJKL

EAST KENTUCKY HOURLY WEATHER ROUNDUP
NATIONAL WEATHER SERVICE JACKSON KY
400 PM EST SUN JAN 25 2015

NOTE: "FAIR" INDICATES FEW OR NO CLOUDS BELOW 12,000 FEET WITH
NO SIGNIFICANT WEATHER AND/OR OBSTRUCTIONS TO VISIBILITY.

* THESE REPORTS ARE NOT UNDER NWS QUALITY CONTROL AND MAY NOT
  REPORT WEATHER SUCH AS PRECIPITATION AND FOG.

KYZ079-080-083-085-087-088-110-112-115-119-120-252200
...EASTERN KENTUCKY...

CITY           SKY/WX    TMP DP  RH WIND       PRES   REMARKS
JACKSON        CLOUDY    49  32  52 S3        29.66F
LONDON         CLOUDY    51  29  42 S12       29.67R
SOMERSET*      CLOUDY    50  32  50 S12G17    29.65F
MONTICELLO*    CLOUDY    52  34  50 S10G20    29.66F
MIDDLESBORO*   CLOUDY    49  32  52 W5        29.71S
HARLAN APT*    CLOUDY    48  30  49 SE3       29.70R
BLACK MTN*       N/A     36  30  80 E1          N/A
PIKEVILLE APT* MOSUNNY   48  32  53 S3        29.68F
BIG SANDY*     CLOUDY    50  33  53 SE6       29.67F
MOREHEAD APT*  CLOUDY    45  34  65 CALM      29.69S
$$

KYZ035-036-041-042-044-050-067-078-099-252200
...CENTRAL KENTUCKY...

CITY           SKY/WX    TMP DP  RH WIND       PRES   REMARKS
MT STERLING*   CLOUDY    45  37  76 E5        29.67S
FLEMING/MASON* CLOUDY    38  34  88 NE5       29.68F WCI  34
DANVILLE*      CLOUDY    46  36  66 S6        29.63F
RICHMOND*      CLOUDY    48  34  57 S3        29.63S
LEXINGTON      CLOUDY    43  34  70 SE6       29.63F
FRANKFORT      CLOUDY    41  35  79 E5        29.62F
$$

KYZ091>093-OHZ055-061-077-WVZ005-015-034-035-042-252200
...SOUTHERN OHIO/WEST VIRGINIA...

CITY           SKY/WX    TMP DP  RH WIND       PRES   REMARKS
COVINGTON      LGT RAIN  40  36  86 E8        29.64F FOG     WCI  34
COLUMBUS       LGT RAIN  34  32  92 E7        29.73R VSB 1   WCI  28
DAYTON         LGT RAIN  36  34  92 E7        29.68S FOG     WCI  30
WILMINGTON     LGT RAIN  37  33  85 SE10      29.67F FOG     WCI  30
HUNTINGTON     CLOUDY    46  36  68 E3        29.69F
CHARLESTON     CLOUDY    48  33  56 S6        29.71F
PINEVILLE*     PTSUNNY   52  33  49 MISG      29.75F
BECKLEY        PTSUNNY   45  31  58 S8        29.71S
BLUEFIELD      MOSUNNY   47  31  53 CALM      29.72F
$$

VAZ002-007-008-TNZ017-027-036-066-071-252200
...SOUTHWEST VIRGINIA/EAST TENNESSEE...

CITY           SKY/WX    TMP DP  RH WIND       PRES   REMARKS
WISE*          PTSUNNY   45  28  53 S8        29.70F
JONESVILLE*    MOCLDY    50  30  46 W7        29.73R
ABINGDON*      PTSUNNY   53  27  36 NW7       29.71F
BRISTOL        MOSUNNY   54  30  40 W8        29.70F
KNOXVILLE      CLOUDY    54  34  46 S13       29.68F
OAK RIDGE      CLOUDY    53  31  42 SW6       29.71S
CROSSVILLE     CLOUDY    50  33  52 S8        29.67S
NASHVILLE      CLOUDY    51  42  71 SW6       29.63S
$$

...KEY TO REMARKS...
VSB - VISIBILITY IN MILES
WCI - WIND CHILL INDEX
HX  - HEAT INDEX

$$



USA.gov is the U.S. government's official web portal to all federal, state and local government web resources and services.